DW8462 Weather Reports


time (UTC)temp
C
wind
direction
speed
KPH
gust
KPH
rain 1hr
cm
rain 24hr
cm
rain mn
cm
humidity
%
barometer
mb
20260906113008 19 56 0.0 0.0 0.00 0.00 0.00 95 1016.3
20260906111505 19 54 0.0 0.0 0.00 0.00 0.00 95 1016.0
20260906110005 19 56 0.0 0.0 0.00 0.00 0.00 95 1015.8
20260906104503 19 56 0.0 0.0 0.00 0.00 0.00 94 1015.7
20260906103100 19 56 0.0 0.0 0.00 0.00 0.00 94 1015.6
20260906101557 20 360 0.0 0.0 0.00 0.00 0.00 94 1015.5
20260906094636 20 55 0.0 0.0 0.00 0.00 0.00 93 1015.2
20260906093100 20 360 0.0 0.0 0.00 0.00 0.00 93 1015.2
20260906091547 21 360 0.0 0.0 0.00 0.00 0.00 93 1015.1
20260906090045 21 360 0.0 0.0 0.00 0.00 0.00 93 1015.0
20260906084544 21 360 0.0 0.0 0.00 0.00 0.00 93 1015.1
20260906083013 21 360 0.0 0.0 0.00 0.00 0.00 93 1015.1
20260906081534 21 360 0.0 0.0 0.00 0.00 0.00 93 1015.2
20260906080010 21 360 0.0 0.0 0.00 0.00 0.00 92 1015.1
20260906074509 22 360 0.0 0.0 0.00 0.00 0.00 93 1015.1
20260906073008 22 360 0.0 0.0 0.00 0.00 0.00 93 1015.3
20260906071507 22 360 0.0 0.0 0.00 0.00 0.00 93 1015.2
20260906070004 22 360 0.0 0.0 0.00 0.00 0.00 94 1015.2
20260906064505 22 360 0.0 0.0 0.00 0.00 0.00 94 1015.2
20260906063007 22 360 0.0 0.0 0.00 0.00 0.00 95 1015.3
20260906061506 22 360 0.0 0.0 0.00 0.00 0.00 95 1015.3
20260906060100 22 360 0.0 0.0 0.00 0.00 0.00 95 1015.2
20260906054557 22 360 0.0 0.0 0.00 0.00 0.00 95 1015.0
20260906053055 21 5 0.0 0.0 0.00 0.00 0.00 95 1014.8
20260906051555 21 360 0.0 0.0 0.00 0.00 0.00 94 1014.8
20260906050022 21 360 0.0 0.0 0.00 0.00 0.00 94 1014.5
20260906044526 21 360 0.0 0.0 0.00 0.00 0.00 94 1014.4
20260906043049 21 360 0.0 0.0 0.00 0.00 0.00 93 1014.3
20260906041550 21 360 0.0 0.0 0.00 0.00 0.00 93 1014.2
20260906040048 21 22 0.0 0.0 0.00 0.00 0.00 92 1014.2
20260906034553 21 360 0.0 0.0 0.00 0.00 0.00 90 1014.1
20260906033040 22 28 0.0 0.0 0.00 0.00 0.00 90 1014.1
20260906031548 22 360 0.0 0.0 0.00 0.00 0.00 89 1014.2
20260906030035 22 360 0.0 0.0 0.00 0.00 0.00 89 1014.0
20260906024535 22 360 0.0 0.0 0.00 0.00 0.00 89 1014.2
20260906023034 22 360 0.0 0.0 0.00 0.00 0.00 88 1014.2
20260906021533 22 360 0.0 0.0 0.00 0.00 0.00 87 1014.2
20260906020048 22 360 0.0 0.0 0.00 0.00 0.00 87 1014.2
20260906014533 22 38 0.0 0.0 0.00 0.00 0.00 88 1014.0
20260906013027 22 360 0.0 0.0 0.00 0.00 0.00 90 1013.9
20260906011526 22 360 0.0 0.0 0.00 0.00 0.00 90 1013.8
20260906010023 22 360 0.0 0.0 0.00 0.00 0.00 90 1013.7
20260906004519 22 360 0.0 0.0 0.00 0.00 0.00 89 1013.3
20260906003023 23 360 0.0 0.0 0.00 0.00 0.00 88 1013.0
20260906001515 23 360 0.0 0.0 0.00 0.00 0.00 87 1013.0
20260906000014 24 360 0.0 0.0 0.00 0.00 0.00 86 1013.1
20260905234545 25 360 0.0 0.0 0.00 0.00 0.00 84 1013.0
20260905233045 25 360 0.0 0.0 0.00 0.00 0.00 82 1012.9
20260905231537 26 360 0.0 0.0 0.00 0.00 0.00 83 1012.5
20260905230037 26 360 0.0 0.0 0.00 0.00 0.00 81 1012.5
20260905224536 26 360 0.0 0.0 0.00 0.00 0.00 80 1012.3
20260905223040 27 360 0.0 0.0 0.00 0.00 0.00 79 1012.2
20260905221543 27 360 0.0 0.0 0.00 0.00 0.00 78 1012.2
20260905220034 28 360 0.0 0.0 0.00 0.00 0.00 77 1012.0
20260905214532 28 360 0.0 0.0 0.00 0.00 0.00 75 1011.9
20260905213034 28 360 0.0 0.0 0.00 0.00 0.00 74 1011.8
20260905211541 29 360 0.0 0.0 0.00 0.00 0.00 72 1011.7
20260905210029 30 360 0.0 0.0 0.00 0.00 0.00 73 1011.7
20260905204529 30 360 0.0 0.0 0.00 0.00 0.00 72 1011.8
20260905203032 30 360 0.0 0.0 0.00 0.00 0.00 72 1011.7
20260905201525 31 360 0.0 0.0 0.00 0.00 0.00 70 1011.7
20260905200035 31 5 0.0 0.0 0.00 0.00 0.00 71 1011.7
20260905194524 31 360 0.0 0.0 0.00 0.00 0.00 70 1011.7
20260905193024 32 360 0.0 0.0 0.00 0.00 0.00 70 1011.8
20260905191521 32 9 0.0 0.0 0.00 0.00 0.00 71 1011.8
20260905190020 32 360 0.0 0.0 0.00 0.00 0.00 71 1011.8
20260905184521 31 5 0.0 0.0 0.00 0.00 0.00 74 1012.0
20260905183019 31 360 0.0 0.0 0.00 0.00 0.00 74 1012.1
20260905181517 31 360 0.0 0.0 0.00 0.00 0.00 74 1012.1
20260905180016 32 360 0.0 0.0 0.00 0.00 0.00 74 1012.0
20260905174515 32 360 0.0 0.0 0.00 0.00 0.00 75 1012.0
20260905173014 32 360 0.0 0.0 0.00 0.00 0.00 74 1012.1
20260905171557 32 23 0.0 0.0 0.00 0.00 0.00 74 1012.1
20260905170043 31 9 0.0 0.0 0.00 0.00 0.00 75 1012.2
20260905164541 31 360 0.0 0.0 0.00 0.00 0.00 75 1012.4
20260905163037 31 5 0.0 0.0 0.00 0.00 0.00 74 1012.4
20260905161540 31 349 0.0 0.0 0.00 0.00 0.00 77 1012.4
20260905160044 31 360 0.0 0.0 0.00 0.00 0.00 79 1012.3
20260905154546 30 26 0.0 0.0 0.00 0.00 0.00 80 1012.4
20260905153029 30 23 0.0 0.0 0.00 0.00 0.00 80 1012.3
20260905151530 30 355 0.0 0.0 0.00 0.00 0.00 79 1012.2
20260905150025 30 360 0.0 0.0 0.00 0.00 0.00 82 1012.2
20260905144533 30 346 0.0 0.0 0.00 0.00 0.00 81 1012.0
20260905143017 29 17 0.0 0.0 0.00 0.00 0.00 82 1011.9
20260905141515 28 24 0.0 0.0 0.00 0.00 0.00 84 1011.8
20260905140010 27 27 0.0 0.0 0.00 0.00 0.00 87 1012.1
20260905134507 27 27 0.0 0.0 0.00 0.00 0.00 90 1012.3
20260905133101 26 30 0.0 0.0 0.00 0.00 0.00 94 1012.1
20260905131602 25 28 0.0 0.0 0.00 0.00 0.00 95 1011.9
20260905130058 25 28 0.0 0.0 0.00 0.00 0.00 95 1011.8
20260905124600 24 28 0.0 0.0 0.00 0.00 0.00 95 1012.0
20260905124556 24 28 0.0 0.0 0.00 0.00 0.00 95 1011.9
20260905123052 24 28 0.0 0.0 0.00 0.00 0.00 95 1011.7
20260905121552 23 28 0.0 0.0 0.00 0.00 0.00 95 1011.7
20260905120051 23 28 0.0 0.0 0.00 0.00 0.00 95 1011.6
20260905114607 23 28 0.0 0.0 0.00 0.00 0.00 94 1011.4